2015-10-18 00:00:56 r, 20.84m,0000000001Hz,0001176054c,0000002.552s, 013.8C,00002191
2015-10-18 00:10:56 r, 20.83m,0000000000Hz,0001161653c,0000002.521s, 013.8C,00002191
2015-10-18 00:20:56 r, 20.81m,0000000000Hz,0001143000c,0000002.480s, 014.1C,00002191
2015-10-18 00:30:56 r, 20.80m,0000000000Hz,0001122657c,0000002.436s, 014.1C,00002191
2015-10-18 00:40:56 r, 20.77m,0000000001Hz,0001103004c,0000002.394s, 014.1C,00002191
2015-10-18 00:50:57 r, 20.72m,0000000000Hz,0001049990c,0000002.279s, 014.1C,00002191
2015-10-18 01:00:56 r, 20.68m,0000000000Hz,0001013577c,0000002.200s, 014.1C,00002191
2015-10-18 01:10:56 r, 20.70m,0000000000Hz,0001025573c,0000002.226s, 014.1C,00002191
2015-10-18 01:20:56 r, 20.75m,0000000000Hz,0001079523c,0000002.343s, 014.1C,00002191
2015-10-18 01:30:56 r, 20.80m,0000000000Hz,0001130923c,0000002.454s, 014.1C,00002191
2015-10-18 01:40:56 r, 20.83m,0000000000Hz,0001157529c,0000002.512s, 014.1C,00002191
2015-10-18 01:50:56 r, 20.84m,0000000001Hz,0001179547c,0000002.560s, 014.1C,00002191
2015-10-18 02:00:56 r, 20.87m,0000000000Hz,0001196258c,0000002.596s, 014.1C,00002191
2015-10-18 02:10:56 r, 20.88m,0000000000Hz,0001217260c,0000002.642s, 014.1C,00002191
2015-10-18 02:20:56 r, 20.88m,0000000000Hz,0001213922c,0000002.634s, 014.1C,00002191
2015-10-18 02:30:56 r, 20.87m,0000000000Hz,0001197951c,0000002.600s, 013.8C,00002191
2015-10-18 02:40:56 r, 20.83m,0000000001Hz,0001158707c,0000002.515s, 013.8C,00002191
2015-10-18 02:50:56 r, 20.69m,0000000001Hz,0001022325c,0000002.219s, 014.1C,00002191
2015-10-18 03:00:56 r, 20.56m,0000000000Hz,0000903610c,0000001.961s, 014.1C,00002191
2015-10-18 03:10:56 r, 20.51m,0000000000Hz,0000860804c,0000001.868s, 014.1C,00002191
2015-10-18 03:20:58 r, 20.49m,0000000001Hz,0000848575c,0000001.842s, 013.8C,00002191
2015-10-18 03:30:56 r, 20.50m,0000000000Hz,0000857179c,0000001.860s, 013.8C,00002191
2015-10-18 03:40:56 r, 20.45m,0000000001Hz,0000813136c,0000001.765s, 013.5C,00002191
2015-10-18 03:50:56 r, 20.51m,0000000000Hz,0000866573c,0000001.881s, 013.5C,00002191
2015-10-18 04:00:56 r, 20.40m,0000000001Hz,0000781673c,0000001.696s, 013.5C,00002191
2015-10-18 04:10:56 r, 20.30m,0000000001Hz,0000713297c,0000001.548s, 013.5C,00002191
2015-10-18 04:20:57 r, 20.22m,0000000000Hz,0000665991c,0000001.445s, 013.5C,00002191
2015-10-18 04:30:56 r, 20.14m,0000000001Hz,0000619054c,0000001.343s, 013.5C,00002191
2015-10-18 04:40:56 r, 20.10m,0000000001Hz,0000601853c,0000001.306s, 013.5C,00002191
2015-10-18 04:50:56 r, 20.18m,0000000001Hz,0000644139c,0000001.398s, 013.5C,00002191
2015-10-18 05:00:56 r, 20.28m,0000000000Hz,0000703491c,0000001.527s, 013.5C,00002191
2015-10-18 05:10:56 r, 20.15m,0000000001Hz,0000624875c,0000001.356s, 013.5C,00002191
2015-10-18 05:20:56 r, 20.20m,0000000001Hz,0000652312c,0000001.416s, 013.5C,00002191
2015-10-18 05:30:56 r, 20.27m,0000000000Hz,0000698759c,0000001.516s, 013.5C,00002191
2015-10-18 05:40:56 r, 20.45m,0000000001Hz,0000817828c,0000001.775s, 013.5C,00002191
2015-10-18 05:50:56 r, 20.53m,0000000000Hz,0000879158c,0000001.908s, 013.5C,00002191
2015-10-18 06:00:56 r, 20.65m,0000000000Hz,0000986131c,0000002.140s, 013.5C,00002191
2015-10-18 06:10:56 r, 20.64m,0000000000Hz,0000968664c,0000002.102s, 013.5C,00002191
2015-10-18 06:20:56 r, 20.58m,0000000001Hz,0000922566c,0000002.002s, 013.8C,00002191
2015-10-18 06:30:56 r, 20.43m,0000000000Hz,0000799945c,0000001.736s, 013.8C,00002191
2015-10-18 06:40:56 r, 19.83m,0000000001Hz,0000466376c,0000001.012s, 013.8C,00002191
2015-10-18 06:50:56 r, 18.70m,0000000003Hz,0000165056c,0000000.358s, 013.8C,00002191
2015-10-18 07:00:56 r, 17.24m,0000000011Hz,0000043113c,0000000.094s, 013.8C,00002191
2015-10-18 07:10:56 r, 15.48m,0000000054Hz,0000008522c,0000000.018s, 013.8C,00002191
2015-10-18 07:20:56 r, 13.35m,0000000387Hz,0000000000c,0000000.000s, 013.8C,00002191
2015-10-18 07:30:56 r, 11.19m,0000002823Hz,0000000000c,0000000.000s, 014.1C,00002191
2015-10-18 07:40:56 r, 09.28m,0000016384Hz,0000000000c,0000000.000s, 013.8C,00002191
2015-10-18 07:50:56 r, 07.88m,0000059160Hz,0000000000c,0000000.000s, 014.1C,00002191
2015-10-18 08:00:57 r, 06.96m,0000139525Hz,0000000000c,0000000.000s, 014.1C,00002191
2015-10-18 08:10:56 r, 06.34m,0000247321Hz,0000000000c,0000000.000s, 014.5C,00002191
2015-10-18 08:20:56 r, 05.92m,0000363686Hz,0000000000c,0000000.000s, 014.8C,00002191
2015-10-18 08:30:57 r, 00.00m,0000477035Hz,0000000000c,0000000.000s, 015.7C,00002191
2015-10-18 08:40:56 r, 00.00m,0000583266Hz,0000000000c,0000000.000s, 016.7C,00002191
2015-10-18 08:50:56 r, 00.00m,0000596643Hz,0000000000c,0000000.000s, 017.4C,00002191
2015-10-18 09:00:56 r, 00.00m,0000596474Hz,0000000000c,0000000.000s, 018.3C,00002191
2015-10-18 09:10:56 r, 00.00m,0000596304Hz,0000000000c,0000000.000s, 019.6C,00002191
2015-10-18 09:20:56 r, 00.00m,0000596373Hz,0000000000c,0000000.000s, 020.6C,00002191
2015-10-18 09:30:57 r, 00.00m,0000596225Hz,0000000000c,0000000.000s, 021.9C,00002191
2015-10-18 09:40:56 r, 00.00m,0000596173Hz,0000000000c,0000000.000s, 022.8C,00002191
2015-10-18 09:50:56 r, 00.00m,0000596094Hz,0000000000c,0000000.000s, 023.8C,00002191
2015-10-18 10:00:58 r, 00.00m,0000596002Hz,0000000000c,0000000.000s, 024.8C,00002191
2015-10-18 10:10:56 r, 00.00m,0000595859Hz,0000000000c,0000000.000s, 025.4C,00002191
2015-10-18 10:20:56 r, 00.00m,0000595807Hz,0000000000c,0000000.000s, 025.7C,00002191
2015-10-18 10:30:56 r, 00.00m,0000595734Hz,0000000000c,0000000.000s, 026.4C,00002191
2015-10-18 10:40:56 r, 00.00m,0000595639Hz,0000000000c,0000000.000s, 027.0C,00002191
2015-10-18 10:50:56 r, 00.00m,0000595568Hz,0000000000c,0000000.000s, 027.7C,00002191
2015-10-18 11:00:57 r, 00.00m,0000595581Hz,0000000000c,0000000.000s, 028.3C,00002191
2015-10-18 11:10:56 r, 00.00m,0000595374Hz,0000000000c,0000000.000s, 029.0C,00002191
2015-10-18 11:20:56 r, 00.00m,0000595284Hz,0000000000c,0000000.000s, 029.6C,00002191
2015-10-18 11:30:57 r, 00.00m,0000595305Hz,0000000000c,0000000.000s, 030.2C,00002191
2015-10-18 11:40:56 r, 00.00m,0000595215Hz,0000000000c,0000000.000s, 030.9C,00002191
2015-10-18 11:50:56 r, 00.00m,0000595201Hz,0000000000c,0000000.000s, 031.5C,00002191
2015-10-18 12:00:56 r, 00.00m,0000595191Hz,0000000000c,0000000.000s, 031.9C,00002191
2015-10-18 12:10:56 r, 00.00m,0000595134Hz,0000000000c,0000000.000s, 032.5C,00002191
2015-10-18 12:20:56 r, 00.00m,0000595104Hz,0000000000c,0000000.000s, 032.8C,00002191
2015-10-18 12:30:56 r, 00.00m,0000594974Hz,0000000000c,0000000.000s, 033.1C,00002191
2015-10-18 12:40:56 r, 00.00m,0000594991Hz,0000000000c,0000000.000s, 033.5C,00002191
2015-10-18 12:50:56 r, 00.00m,0000594868Hz,0000000000c,0000000.000s, 033.8C,00002191
2015-10-18 13:00:56 r, 00.00m,0000594786Hz,0000000000c,0000000.000s, 034.1C,00002191
2015-10-18 13:10:56 r, 00.00m,0000594725Hz,0000000000c,0000000.000s, 034.4C,00002191
2015-10-18 13:20:56 r, 00.00m,0000594729Hz,0000000000c,0000000.000s, 034.4C,00002191
2015-10-18 13:30:58 r, 00.00m,0000594693Hz,0000000000c,0000000.000s, 035.1C,00002191
2015-10-18 13:40:56 r, 00.00m,0000594588Hz,0000000000c,0000000.000s, 035.1C,00002191
2015-10-18 13:50:56 r, 00.00m,0000594668Hz,0000000000c,0000000.000s, 035.4C,00002191
2015-10-18 14:00:56 r, 00.00m,0000594516Hz,0000000000c,0000000.000s, 035.7C,00002191
2015-10-18 14:10:56 r, 00.00m,0000594546Hz,0000000000c,0000000.000s, 035.7C,00002191
2015-10-18 14:20:56 r, 00.00m,0000594529Hz,0000000000c,0000000.000s, 035.7C,00002191
2015-10-18 14:30:58 r, 00.00m,0000594620Hz,0000000000c,0000000.000s, 035.7C,00002191
2015-10-18 14:40:56 r, 00.00m,0000594480Hz,0000000000c,0000000.000s, 035.7C,00002191
2015-10-18 14:50:56 r, 00.00m,0000594659Hz,0000000000c,0000000.000s, 035.7C,00002191
2015-10-18 15:00:59 r, 00.00m,0000594631Hz,0000000000c,0000000.000s, 035.4C,00002191
2015-10-18 15:10:56 r, 00.00m,0000594654Hz,0000000000c,0000000.000s, 035.4C,00002191
2015-10-18 15:20:56 r, 00.00m,0000594706Hz,0000000000c,0000000.000s, 035.4C,00002191
2015-10-18 15:30:56 r, 00.00m,0000594605Hz,0000000000c,0000000.000s, 035.1C,00002191
2015-10-18 15:40:56 r, 00.00m,0000594689Hz,0000000000c,0000000.000s, 035.1C,00002191
2015-10-18 15:50:56 r, 00.00m,0000594733Hz,0000000000c,0000000.000s, 034.8C,00002191
2015-10-18 16:00:57 r, 00.00m,0000594786Hz,0000000000c,0000000.000s, 034.4C,00002191
2015-10-18 16:10:56 r, 00.00m,0000594826Hz,0000000000c,0000000.000s, 034.4C,00002191
2015-10-18 16:20:56 r, 00.00m,0000594832Hz,0000000000c,0000000.000s, 034.1C,00002191
2015-10-18 16:30:57 r, 00.00m,0000594812Hz,0000000000c,0000000.000s, 034.1C,00002191
2015-10-18 16:40:56 r, 00.00m,0000594936Hz,0000000000c,0000000.000s, 033.5C,00002191
2015-10-18 16:50:57 r, 00.00m,0000595020Hz,0000000000c,0000000.000s, 033.1C,00002191
2015-10-18 17:00:57 r, 00.00m,0000595127Hz,0000000000c,0000000.000s, 033.1C,00002191
2015-10-18 17:10:56 r, 00.00m,0000595110Hz,0000000000c,0000000.000s, 032.5C,00002191
2015-10-18 17:20:56 r, 00.00m,0000595152Hz,0000000000c,0000000.000s, 031.9C,00002191
2015-10-18 17:30:58 r, 00.00m,0000595200Hz,0000000000c,0000000.000s, 031.2C,00002191
2015-10-18 17:40:57 r, 00.00m,0000595201Hz,0000000000c,0000000.000s, 031.2C,00002191
2015-10-18 17:50:56 r, 00.00m,0000532973Hz,0000000000c,0000000.000s, 030.2C,00002191
2015-10-18 18:00:58 r, 00.00m,0000434057Hz,0000000000c,0000000.000s, 029.6C,00002191
2015-10-18 18:10:57 r, 06.14m,0000295964Hz,0000000000c,0000000.000s, 029.3C,00002191
2015-10-18 18:20:56 r, 06.72m,0000173746Hz,0000000000c,0000000.000s, 028.6C,00002191
2015-10-18 18:30:56 r, 07.60m,0000076825Hz,0000000000c,0000000.000s, 028.0C,00002191
2015-10-18 18:40:56 r, 08.80m,0000025551Hz,0000000000c,0000000.000s, 027.3C,00002191
2015-10-18 18:50:56 r, 10.52m,0000005270Hz,0000000000c,0000000.000s, 027.0C,00002191
2015-10-18 19:00:56 r, 12.57m,0000000793Hz,0000000000c,0000000.000s, 026.7C,00002191
2015-10-18 19:10:56 r, 14.81m,0000000100Hz,0000004621c,0000000.010s, 026.4C,00002191
2015-10-18 19:20:57 r, 16.80m,0000000016Hz,0000028768c,0000000.062s, 026.1C,00002191
2015-10-18 19:30:56 r, 18.35m,0000000004Hz,0000120088c,0000000.261s, 026.1C,00002191
2015-10-18 19:40:56 r, 19.54m,0000000001Hz,0000357056c,0000000.775s, 026.1C,00002191
2015-10-18 19:50:56 r, 20.18m,0000000000Hz,0000644924c,0000001.400s, 025.7C,00002191
2015-10-18 20:00:56 r, 20.41m,0000000001Hz,0000789176c,0000001.713s, 025.7C,00002191
2015-10-18 20:10:56 r, 20.45m,0000000001Hz,0000817753c,0000001.775s, 025.7C,00002191
2015-10-18 20:20:57 r, 20.39m,0000000000Hz,0000773769c,0000001.679s, 025.7C,00002191
2015-10-18 20:30:57 r, 20.42m,0000000001Hz,0000795885c,0000001.727s, 025.7C,00002191
2015-10-18 20:40:56 r, 20.45m,0000000001Hz,0000816778c,0000001.773s, 025.7C,00002191
2015-10-18 20:50:56 r, 20.50m,0000000001Hz,0000854002c,0000001.853s, 025.4C,00002191
2015-10-18 21:00:57 r, 20.52m,0000000000Hz,0000879271c,0000001.908s, 025.1C,00002191
2015-10-18 21:10:56 r, 20.59m,0000000000Hz,0000926418c,0000002.010s, 025.1C,00002191
2015-10-18 21:20:57 r, 20.55m,0000000001Hz,0000899996c,0000001.953s, 024.8C,00002191
2015-10-18 21:30:56 r, 20.47m,0000000000Hz,0000833089c,0000001.808s, 024.8C,00002191
2015-10-18 21:40:57 r, 20.38m,0000000001Hz,0000764744c,0000001.660s, 024.4C,00002191
2015-10-18 21:50:56 r, 20.12m,0000000001Hz,0000610207c,0000001.324s, 024.4C,00002191
2015-10-18 22:00:56 r, 20.42m,0000000001Hz,0000798539c,0000001.733s, 024.4C,00002191
2015-10-18 22:10:56 r, 20.32m,0000000000Hz,0000727573c,0000001.579s, 024.1C,00002191
2015-10-18 22:20:56 r, 20.19m,0000000001Hz,0000649048c,0000001.409s, 023.8C,00002191
2015-10-18 22:30:56 r, 19.91m,0000000001Hz,0000502048c,0000001.090s, 023.5C,00002191
2015-10-18 22:40:56 r, 19.61m,0000000001Hz,0000380009c,0000000.825s, 023.5C,00002191
2015-10-18 22:50:57 r, 19.18m,0000000002Hz,0000256483c,0000000.557s, 023.2C,00002191
2015-10-18 23:00:58 r, 19.18m,0000000001Hz,0000256383c,0000000.556s, 023.2C,00002191
2015-10-18 23:10:56 r, 19.57m,0000000002Hz,0000368566c,0000000.800s, 023.2C,00002191
2015-10-18 23:20:56 r, 20.01m,0000000000Hz,0000550952c,0000001.196s, 023.2C,00002191
2015-10-18 23:30:56 r, 19.98m,0000000000Hz,0000540274c,0000001.172s, 023.2C,00002191
2015-10-18 23:40:56 r, 19.89m,0000000001Hz,0000493474c,0000001.071s, 023.2C,00002191
2015-10-18 23:50:56 r, 19.77m,0000000001Hz,0000440413c,0000000.956s, 023.2C,00002191
